Weather History for Kalamazoo, MI

Change the Weather History Date:

Saturday, April 6, 2013

  Actual Average Record
Temperature  
Mean Temperature 49 °F 45 °F  
Max Temperature 61 °F 56 °F 82 °F (1991)
Min Temperature 36 °F 35 °F 12 °F (1979)
Degree Days  
Heating Degree Days 16 20  
Month to date heating degree days 159 125  
Since 1 July heating degree days 5729 5782  
Cooling Degree Days 0 0  
Month to date cooling degree days 0 0  
Year to date cooling degree days 0 0  
Moisture  
Dew Point 26 °F    
Average Humidity 46    
Maximum Humidity 64    
Minimum Humidity 28    
Precipitation  
Precipitation T in 0.09 in 1.27 in (1958)
Month to date precipitation T 0.55  
Year to date precipitation 5.34 6.04  
Sea Level Pressure  
Sea Level Pressure 30.01 in    
Wind  
Wind Speed 11 mph (SSE)    
Max Wind Speed 23 mph    
Max Gust Speed 32 mph    
Visibility 10 miles    
Events Rain    
T = Trace of Precipitation, MM = Missing Value Source: NWS Daily Summary

Daily Weather History Graph

Daily Weather History Graph

Search for Another Location

Airport:

Trip Planner

Search our weather history database for the weather conditions in past years. The results will help you decide how hot, cold, wet, or windy it might be!

Date:

Astronomy

Apr. 06, 2013 Rise Set
Actual Time 7:15 AM EDT 8:13 PM EDT
Civil Twilight 6:47 AM EDT 8:42 PM EDT
Nautical Twilight 6:13 AM EDT 9:16 PM EDT
Astronomical Twilight 5:37 AM EDT 9:52 PM EDT
Moon 5:03 AM EDT (4/6) 4:38 PM EDT (4/6)
Length of Visible Light 13h 55m
Length of Day
12h 58m
Waning Crescent, 15% of the Moon is Illuminated
Apr 6
Waning Crescent
Apr 10
New
Apr 18
First Quarter
Apr 25
Full
May 2
Last Quarter

Hourly Weather History & Observations

Time (EDT) Temp. Windchill Dew Point Humidity Pressure Visibility Wind Dir Wind Speed Gust Speed Precip Events Conditions
12:53 AM 37.0 °F - 23.0 °F 57% 30.19 in 10.0 mi Calm Calm - N/A   Overcast
1:53 AM 37.0 °F - 24.1 °F 59% 30.18 in 10.0 mi Calm Calm - N/A   Overcast
2:53 AM 36.0 °F 32.1 °F 24.1 °F 62% 30.19 in 10.0 mi East 4.6 mph - N/A   Overcast
3:53 AM 37.0 °F 33.3 °F 24.1 °F 59% 30.19 in 10.0 mi SE 4.6 mph - N/A   Overcast
4:53 AM 37.0 °F 31.6 °F 25.0 °F 62% 30.18 in 10.0 mi SE 6.9 mph - N/A   Overcast
5:53 AM 37.0 °F 30.4 °F 24.1 °F 59% 30.17 in 10.0 mi SE 9.2 mph - N/A   Overcast
6:53 AM 37.0 °F 31.6 °F 23.0 °F 57% 30.19 in 10.0 mi SE 6.9 mph - 0.00 in   Overcast
7:53 AM 37.0 °F 31.0 °F 23.0 °F 57% 30.18 in 10.0 mi SE 8.1 mph - N/A   Overcast
8:53 AM 39.0 °F 33.4 °F 23.0 °F 53% 30.17 in 10.0 mi SSE 8.1 mph 20.7 mph N/A   Overcast
9:53 AM 41.0 °F 34.3 °F 21.0 °F 45% 30.16 in 10.0 mi SSE 11.5 mph 24.2 mph N/A   Scattered Clouds
10:53 AM 44.1 °F 37.4 °F 21.0 °F 40% 30.13 in 10.0 mi SSE 13.8 mph 26.5 mph N/A   Partly Cloudy
11:53 AM 48.0 °F - 21.9 °F 36% 30.11 in 10.0 mi SSE 11.5 mph 26.5 mph N/A   Partly Cloudy
12:53 PM 51.1 °F - 24.1 °F 35% 30.07 in 10.0 mi SSE 15.0 mph 20.7 mph N/A   Clear
1:53 PM 54.0 °F - 24.1 °F 31% 30.02 in 10.0 mi SSE 16.1 mph 29.9 mph N/A   Clear
2:53 PM 57.0 °F - 25.0 °F 29% 29.96 in 10.0 mi SSE 13.8 mph 29.9 mph N/A   Clear
3:53 PM 57.9 °F - 27.0 °F 31% 29.91 in 10.0 mi SSE 16.1 mph 26.5 mph N/A   Partly Cloudy
4:53 PM 59.0 °F - 28.0 °F 31% 29.84 in 10.0 mi SSE 18.4 mph 28.8 mph N/A   Clear
5:53 PM 59.0 °F - 28.9 °F 32% 29.83 in 10.0 mi South 11.5 mph 23.0 mph N/A   Partly Cloudy
6:53 PM 60.1 °F - 30.0 °F 32% 29.82 in 10.0 mi South 13.8 mph 25.3 mph N/A   Mostly Cloudy
7:53 PM 59.0 °F - 30.9 °F 35% 29.80 in 10.0 mi SSE 9.2 mph 24.2 mph N/A   Clear
8:53 PM 57.9 °F - 30.0 °F 35% 29.77 in 10.0 mi SSE 12.7 mph 21.9 mph N/A   Scattered Clouds
9:53 PM 57.0 °F - 30.9 °F 37% 29.75 in 10.0 mi SSE 11.5 mph 19.6 mph N/A   Mostly Cloudy
10:53 PM 55.9 °F - 36.0 °F 47% 29.73 in 10.0 mi South 9.2 mph 18.4 mph 0.00 in Rain Light Rain
11:53 PM 59.0 °F - 36.0 °F 42% 29.70 in 10.0 mi South 19.6 mph 24.2 mph 0.00 in   Overcast